{"data":{"norad_id":45625,"intl_designator":"2020-034B","name":"GAOFEN-9 02","alt_names":[],"object_type":"PAYLOAD","status":"ACTIVE","operator":null,"country":"PRC","launch_date":"2020-05-31","launch_site_code":"JSC","launch_vehicle":null,"mission":null,"orbit_class":"UNKNOWN","rcs_meters":null,"size_class":null,"mass_kg":null,"dimensions":null,"purposes":[],"wikipedia_slug":null,"has_3d_model":false,"image_url":null,"decayed_at":null,"tle_current":{"epoch":"2026-09-20T04:14:54.781152Z","epoch_age_seconds":96072,"freshness":"FRESH","line1":"1 45625U 20034B   26263.17702293  .00003531  00000+0  13658-3 0  9998","line2":"2 45625  97.5873  61.8915 0013739  93.8152 266.4657 15.26816278350655","mean_motion":15.26816278,"eccentricity":0.0013739,"inclination_deg":97.5873,"raan_deg":61.8915,"arg_perigee_deg":93.8152,"mean_anomaly_deg":266.4657,"bstar":0.00013658,"rev_number":35065,"period_min":94.313901466015,"perigee_km":475.90718084993,"apogee_km":494.76663445338,"semimajor_km":6863.4739076517,"source":"CELESTRAK","updated_at":"2026-09-20T09:00:14.700525Z"}}}